JAG88 KMKE-KFLL

Flight info

Callsign JAG88
Flight time 2h 46m
Altitude 36000
Route UECKR6 DELHI PXV/N0440F370 HITMN/N0442F360 GRGIA/N0440F370 MGMRY ACORI TEEKY4
Aircraft A319/M-SDE3FGHIRWY/LB1

Departure

Time 2026-05-04 19:04
Airport General Mitchell International Airport (KMKE)

Arrival

Time 2026-05-04 21:50
Airport Fort Lauderdale Hollywood International Airport (KFLL)
Time Latitude Longitude Altitude Speed Heading
2026-05-04 18:44 42.95119 -87.90066 679 ft 0 kts 199°
2026-05-04 18:54 42.95130 -87.90061 678 ft 3 kts 199°
2026-05-04 18:54 42.95148 -87.90052 675 ft 3 kts 199°
2026-05-04 18:54 42.95166 -87.90045 676 ft 3 kts 213°
2026-05-04 18:54 42.95177 -87.90025 672 ft 3 kts 270°
2026-05-04 18:55 42.95174 -87.90009 675 ft 0 kts 308°
2026-05-04 18:57 42.95179 -87.90017 675 ft 3 kts 310°
2026-05-04 18:57 42.95210 -87.90058 676 ft 9 kts 317°
2026-05-04 18:58 42.95274 -87.90109 674 ft 12 kts 20°
2026-05-04 18:58 42.95307 -87.90024 676 ft 10 kts 67°
2026-05-04 18:58 42.95334 -87.89929 676 ft 12 kts 69°
2026-05-04 18:58 42.95351 -87.89861 676 ft 1 kts 72°
2026-05-04 18:59 42.95356 -87.89840 676 ft 4 kts 72°
2026-05-04 18:59 42.95366 -87.89798 676 ft 5 kts 73°
2026-05-04 18:59 42.95378 -87.89748 677 ft 6 kts 72°
2026-05-04 18:59 42.95389 -87.89701 678 ft 5 kts 72°
2026-05-04 19:00 42.95399 -87.89658 677 ft 5 kts 72°
2026-05-04 19:00 42.95411 -87.89609 678 ft 6 kts 71°
2026-05-04 19:00 42.95428 -87.89541 677 ft 9 kts 71°
2026-05-04 19:00 42.95483 -87.89500 679 ft 11 kts
2026-05-04 19:01 42.95559 -87.89488 679 ft 11 kts
2026-05-04 19:01 42.95639 -87.89474 680 ft 12 kts
2026-05-04 19:01 42.95709 -87.89460 678 ft 7 kts 15°
2026-05-04 19:01 42.95733 -87.89440 679 ft 0 kts 43°
2026-05-04 19:02 42.95733 -87.89439 677 ft 0 kts 43°
2026-05-04 19:02 42.95735 -87.89437 677 ft 2 kts 46°
2026-05-04 19:02 42.95743 -87.89396 677 ft 7 kts 88°
2026-05-04 19:03 42.95725 -87.89320 677 ft 10 kts 143°
2026-05-04 19:03 42.95659 -87.89318 678 ft 9 kts 187°
2026-05-04 19:03 42.95531 -87.89342 679 ft 39 kts 187°
2026-05-04 19:03 42.95082 -87.89423 674 ft 90 kts 187°
2026-05-04 19:04 42.94297 -87.89556 683 ft 136 kts 187°
2026-05-04 19:04 42.93323 -87.89710 932 ft 153 kts 194°
2026-05-04 19:04 42.92256 -87.89922 1365 ft 159 kts 192°
2026-05-04 19:04 42.91055 -87.90003 1574 ft 189 kts 184°
2026-05-04 19:05 42.89665 -87.89659 1883 ft 216 kts 171°
2026-05-04 19:05 42.88122 -87.89271 2265 ft 236 kts 182°
2026-05-04 19:05 42.86447 -87.88877 2949 ft 254 kts 168°
2026-05-04 19:05 42.84831 -87.87757 3737 ft 269 kts 148°
2026-05-04 19:06 42.83522 -87.85863 4669 ft 281 kts 129°
2026-05-04 19:06 42.82648 -87.83421 5478 ft 294 kts 112°
2026-05-04 19:06 42.81869 -87.80817 6236 ft 299 kts 121°
2026-05-04 19:06 42.80745 -87.78430 7019 ft 300 kts 132°
2026-05-04 19:07 42.79309 -87.76371 7819 ft 301 kts 143°
2026-05-04 19:07 42.77736 -87.74466 8627 ft 305 kts 143°
2026-05-04 19:07 42.76141 -87.72536 9461 ft 308 kts 142°
2026-05-04 19:07 42.74533 -87.70588 10173 ft 314 kts 143°
2026-05-04 19:08 42.72842 -87.68548 10404 ft 337 kts 143°
2026-05-04 19:08 42.70960 -87.66536 10804 ft 346 kts 152°
2026-05-04 19:08 42.68812 -87.65067 11452 ft 345 kts 165°
2026-05-04 19:08 42.66511 -87.64231 12152 ft 342 kts 177°
2026-05-04 19:09 42.64149 -87.63970 12875 ft 341 kts 183°
2026-05-04 19:09 42.61769 -87.63798 13576 ft 343 kts 183°
2026-05-04 19:09 42.59376 -87.63629 14182 ft 346 kts 183°
2026-05-04 19:09 42.56988 -87.63457 14767 ft 349 kts 183°
2026-05-04 19:10 42.54555 -87.63278 15368 ft 352 kts 183°
2026-05-04 19:10 42.52092 -87.63095 15973 ft 356 kts 183°
2026-05-04 19:10 42.49607 -87.62898 16556 ft 360 kts 183°
2026-05-04 19:10 42.47097 -87.62696 17146 ft 363 kts 183°
2026-05-04 19:11 42.44561 -87.62490 17732 ft 367 kts 182°
2026-05-04 19:11 42.42018 -87.62500 18250 ft 364 kts 192°
2026-05-04 19:11 42.39517 -87.63002 18769 ft 364 kts 195°
2026-05-04 19:11 42.36998 -87.63545 19281 ft 367 kts 195°
2026-05-04 19:12 42.34466 -87.64084 19803 ft 370 kts 195°
2026-05-04 19:12 42.29500 -87.65819 20820 ft 367 kts 209°
2026-05-04 19:12 42.27152 -87.67169 21325 ft 370 kts 209°
2026-05-04 19:13 42.24763 -87.68537 21838 ft 373 kts 208°
2026-05-04 19:13 42.22365 -87.69901 22335 ft 376 kts 208°
2026-05-04 19:13 42.19940 -87.71277 22823 ft 379 kts 208°
2026-05-04 19:13 42.17507 -87.72656 23298 ft 381 kts 208°
2026-05-04 19:14 42.15048 -87.74048 23663 ft 385 kts 208°
2026-05-04 19:14 42.13405 -87.74978 23915 ft 387 kts 208°
2026-05-04 19:14 42.10092 -87.76846 24435 ft 392 kts 207°
2026-05-04 19:14 42.08332 -87.77632 24684 ft 398 kts 200°
2026-05-04 19:15 42.04645 -87.78324 25187 ft 411 kts 187°
2026-05-04 19:15 42.01777 -87.78387 25546 ft 414 kts 186°
2026-05-04 19:15 41.98881 -87.78458 25925 ft 416 kts 187°
2026-05-04 19:15 41.95974 -87.78538 26281 ft 419 kts 186°
2026-05-04 19:16 41.94004 -87.78595 26536 ft 421 kts 186°
2026-05-04 19:16 41.91070 -87.78662 26910 ft 423 kts 186°
2026-05-04 19:16 41.88108 -87.78672 27287 ft 427 kts 185°
2026-05-04 19:16 41.85125 -87.78643 27657 ft 429 kts 184°
2026-05-04 19:17 41.82127 -87.78596 28010 ft 432 kts 184°
2026-05-04 19:17 41.79151 -87.78550 28368 ft 435 kts 184°
2026-05-04 19:17 41.76077 -87.78512 28728 ft 437 kts 184°
2026-05-04 19:17 41.73069 -87.78483 29041 ft 440 kts 184°
2026-05-04 19:18 41.69997 -87.78461 29385 ft 442 kts 184°
2026-05-04 19:18 41.66910 -87.78443 29713 ft 445 kts 184°
2026-05-04 19:18 41.63810 -87.78430 29996 ft 447 kts 184°
2026-05-04 19:18 41.60689 -87.78418 30292 ft 449 kts 184°
2026-05-04 19:19 41.57553 -87.78398 30603 ft 451 kts 184°
2026-05-04 19:19 41.54410 -87.78373 30888 ft 452 kts 184°
2026-05-04 19:19 41.51261 -87.78350 31165 ft 454 kts 184°
2026-05-04 19:19 41.48096 -87.78329 31428 ft 455 kts 184°
2026-05-04 19:20 41.44914 -87.78313 31700 ft 457 kts 184°
2026-05-04 19:20 41.41777 -87.78297 32042 ft 456 kts 184°
2026-05-04 19:20 41.38613 -87.78280 32449 ft 455 kts 184°
2026-05-04 19:20 41.35445 -87.78259 32844 ft 454 kts 184°
2026-05-04 19:21 41.32297 -87.78235 33216 ft 453 kts 184°
2026-05-04 19:21 41.29142 -87.78213 33576 ft 452 kts 184°
2026-05-04 19:21 41.25997 -87.78191 33905 ft 452 kts 184°
2026-05-04 19:21 41.22852 -87.78168 34230 ft 451 kts 184°
2026-05-04 19:22 41.19700 -87.78148 34547 ft 451 kts 184°
2026-05-04 19:22 41.16560 -87.78132 34852 ft 451 kts 184°
2026-05-04 19:22 41.13424 -87.78116 35151 ft 450 kts 184°
2026-05-04 19:22 41.10297 -87.78100 35419 ft 450 kts 184°
2026-05-04 19:23 41.07163 -87.78084 35629 ft 451 kts 184°
2026-05-04 19:23 41.00934 -87.78044 35701 ft 444 kts 184°
2026-05-04 19:24 40.94810 -87.77997 35699 ft 442 kts 184°
2026-05-04 19:24 40.88647 -87.77959 35685 ft 442 kts 184°
2026-05-04 19:25 40.82480 -87.77929 35695 ft 444 kts 185°
2026-05-04 19:25 40.76296 -87.77902 35692 ft 444 kts 184°
2026-05-04 19:26 40.70118 -87.77859 35693 ft 444 kts 185°
2026-05-04 19:26 40.63933 -87.77817 35691 ft 444 kts 185°
2026-05-04 19:27 40.57754 -87.77781 35701 ft 444 kts 185°
2026-05-04 19:27 40.51573 -87.77749 35713 ft 444 kts 184°
2026-05-04 19:28 40.45389 -87.77711 35728 ft 444 kts 184°
2026-05-04 19:28 40.39210 -87.77674 35731 ft 444 kts 185°
2026-05-04 19:29 40.33023 -87.77629 35749 ft 445 kts 185°
2026-05-04 19:29 40.26825 -87.77591 35758 ft 445 kts 185°
2026-05-04 19:30 40.20628 -87.77559 35744 ft 445 kts 184°
2026-05-04 19:30 40.14465 -87.77528 35755 ft 446 kts 184°
2026-05-04 19:31 40.08254 -87.77488 35763 ft 446 kts 184°
2026-05-04 19:31 40.02064 -87.77446 35753 ft 445 kts 184°
2026-05-04 19:32 39.95862 -87.77405 35760 ft 445 kts 184°
2026-05-04 19:32 39.89670 -87.77375 35779 ft 445 kts 184°
2026-05-04 19:33 39.83480 -87.77346 35792 ft 445 kts 184°
2026-05-04 19:33 39.77292 -87.77304 35785 ft 444 kts 184°
2026-05-04 19:34 39.71097 -87.77262 35795 ft 444 kts 184°
2026-05-04 19:34 39.64913 -87.77221 35801 ft 444 kts 184°
2026-05-04 19:35 39.58755 -87.77186 35802 ft 444 kts 184°
2026-05-04 19:35 39.52568 -87.77151 35781 ft 445 kts 184°
2026-05-04 19:36 39.46381 -87.77116 35785 ft 445 kts 184°
2026-05-04 19:36 39.40185 -87.77087 35782 ft 445 kts 184°
2026-05-04 19:37 39.34009 -87.77054 35784 ft 445 kts 184°
2026-05-04 19:37 39.27814 -87.77010 35780 ft 445 kts 184°
2026-05-04 19:38 39.21660 -87.76974 35788 ft 445 kts 184°
2026-05-04 19:38 39.15469 -87.76935 35797 ft 445 kts 184°
2026-05-04 19:39 39.09274 -87.76902 35786 ft 445 kts 185°
2026-05-04 19:39 39.03063 -87.76874 35793 ft 445 kts 185°
2026-05-04 19:40 38.96868 -87.76840 35799 ft 445 kts 185°
2026-05-04 19:40 38.90693 -87.76802 35801 ft 446 kts 185°
2026-05-04 19:41 38.84493 -87.76770 35782 ft 445 kts 185°
2026-05-04 19:41 38.78293 -87.76728 35795 ft 446 kts 185°
2026-05-04 19:42 38.72088 -87.76692 35804 ft 446 kts 185°
2026-05-04 19:42 38.65879 -87.76647 35823 ft 446 kts 185°
2026-05-04 19:43 38.59668 -87.76609 35804 ft 446 kts 185°
2026-05-04 19:43 38.53457 -87.76585 35812 ft 446 kts 185°
2026-05-04 19:44 38.47248 -87.76555 35814 ft 446 kts 185°
2026-05-04 19:44 38.41085 -87.76514 35819 ft 446 kts 185°
2026-05-04 19:45 38.34877 -87.76474 35823 ft 446 kts 185°
2026-05-04 19:45 38.28669 -87.76433 35833 ft 446 kts 185°
2026-05-04 19:46 38.22462 -87.76400 35848 ft 446 kts 185°
2026-05-04 19:46 38.16262 -87.76372 35823 ft 446 kts 185°
2026-05-04 19:47 38.10050 -87.76339 35836 ft 446 kts 185°
2026-05-04 19:47 38.03833 -87.76303 35843 ft 446 kts 185°
2026-05-04 19:48 37.97624 -87.76261 35849 ft 447 kts 185°
2026-05-04 19:48 37.91457 -87.75096 35842 ft 459 kts 167°
2026-05-04 19:49 37.85570 -87.71765 35852 ft 465 kts 158°
2026-05-04 19:49 37.79756 -87.68174 35872 ft 465 kts 159°
2026-05-04 19:50 37.73943 -87.64600 35873 ft 464 kts 159°
2026-05-04 19:50 37.68141 -87.61046 35849 ft 464 kts 159°
2026-05-04 19:51 37.62325 -87.57489 35851 ft 464 kts 159°
2026-05-04 19:51 37.56518 -87.53940 35856 ft 464 kts 159°
2026-05-04 19:52 37.50716 -87.50393 35857 ft 464 kts 159°
2026-05-04 19:52 37.44912 -87.46851 35847 ft 463 kts 159°
2026-05-04 19:53 37.39106 -87.43322 35847 ft 463 kts 159°
2026-05-04 19:53 37.33357 -87.39839 35863 ft 463 kts 159°
2026-05-04 19:54 37.27549 -87.36325 35874 ft 463 kts 159°
2026-05-04 19:54 37.21739 -87.32805 35876 ft 463 kts 159°
2026-05-04 19:55 37.15931 -87.29298 35872 ft 463 kts 159°
2026-05-04 19:55 37.10131 -87.25789 35886 ft 463 kts 159°
2026-05-04 19:56 37.04369 -87.22317 35896 ft 462 kts 159°
2026-05-04 19:56 36.98562 -87.18830 35900 ft 462 kts 159°
2026-05-04 19:57 36.92762 -87.15357 35876 ft 462 kts 159°
2026-05-04 19:57 36.86965 -87.11881 35892 ft 462 kts 159°
2026-05-04 19:58 36.81163 -87.08407 35896 ft 462 kts 159°
2026-05-04 19:58 36.75402 -87.04975 35904 ft 462 kts 159°
2026-05-04 19:59 36.69599 -87.01525 35890 ft 462 kts 159°
2026-05-04 19:59 36.63797 -86.98080 35898 ft 462 kts 159°
2026-05-04 20:00 36.57995 -86.94630 35910 ft 462 kts 159°
2026-05-04 20:00 36.52201 -86.91187 35920 ft 462 kts 159°
2026-05-04 20:01 36.46405 -86.87751 35936 ft 461 kts 159°
2026-05-04 20:01 36.40615 -86.84328 35928 ft 461 kts 159°
2026-05-04 20:02 36.35794 -86.81493 35936 ft 460 kts 159°
2026-05-04 20:02 36.30006 -86.78087 35942 ft 460 kts 159°
2026-05-04 20:03 36.24226 -86.74678 35945 ft 460 kts 159°
2026-05-04 20:03 36.18440 -86.71273 35927 ft 460 kts 159°
2026-05-04 20:04 36.12467 -86.68723 35933 ft 449 kts 175°
2026-05-04 20:04 36.06362 -86.68192 35939 ft 441 kts 184°
2026-05-04 20:05 36.00213 -86.67967 35942 ft 442 kts 184°
2026-05-04 20:05 35.94068 -86.67716 35975 ft 442 kts 184°
2026-05-04 20:06 35.87921 -86.67468 35958 ft 442 kts 184°
2026-05-04 20:06 35.81773 -86.67228 35962 ft 442 kts 184°
2026-05-04 20:07 35.75624 -86.66988 35967 ft 442 kts 184°
2026-05-04 20:07 35.69470 -86.66740 35946 ft 442 kts 184°
2026-05-04 20:08 35.63331 -86.66495 35955 ft 442 kts 184°
2026-05-04 20:08 35.57216 -86.66258 35960 ft 442 kts 184°
2026-05-04 20:09 35.51074 -86.66026 35962 ft 442 kts 184°
2026-05-04 20:09 35.44920 -86.65790 35944 ft 442 kts 184°
2026-05-04 20:10 35.38771 -86.65539 35956 ft 442 kts 184°
2026-05-04 20:10 35.32611 -86.65291 35967 ft 443 kts 184°
2026-05-04 20:11 35.26452 -86.65049 35974 ft 443 kts 184°
2026-05-04 20:11 35.20294 -86.64816 35988 ft 443 kts 184°
2026-05-04 20:12 35.14133 -86.64579 35974 ft 443 kts 184°
2026-05-04 20:12 35.07955 -86.64341 35981 ft 444 kts 184°
2026-05-04 20:13 35.01781 -86.64103 35986 ft 444 kts 184°
2026-05-04 20:13 34.95601 -86.63866 36002 ft 444 kts 184°
2026-05-04 20:14 34.89421 -86.63627 35987 ft 445 kts 184°
2026-05-04 20:14 34.83229 -86.63391 35993 ft 445 kts 184°
2026-05-04 20:15 34.77032 -86.63152 35992 ft 446 kts 184°
2026-05-04 20:15 34.70840 -86.62911 35995 ft 446 kts 184°
2026-05-04 20:16 34.64628 -86.62675 35978 ft 446 kts 184°
2026-05-04 20:16 34.58411 -86.62441 35988 ft 447 kts 184°
2026-05-04 20:17 34.52188 -86.62206 35993 ft 447 kts 184°
2026-05-04 20:17 34.45966 -86.61967 36001 ft 448 kts 184°
2026-05-04 20:18 34.39767 -86.61729 35996 ft 448 kts 184°
2026-05-04 20:18 34.33532 -86.61490 36008 ft 449 kts 184°
2026-05-04 20:19 34.27279 -86.61255 36017 ft 450 kts 184°
2026-05-04 20:19 34.21020 -86.61021 36021 ft 450 kts 184°
2026-05-04 20:20 34.14759 -86.60778 36007 ft 451 kts 185°
2026-05-04 20:20 34.08462 -86.60542 36016 ft 453 kts 185°
2026-05-04 20:21 34.02160 -86.60305 36027 ft 453 kts 185°
2026-05-04 20:21 33.92710 -86.59944 36034 ft 453 kts 185°
2026-05-04 20:22 33.86443 -86.59709 36010 ft 453 kts 185°
2026-05-04 20:22 33.80126 -86.59477 36018 ft 454 kts 185°
2026-05-04 20:23 33.73806 -86.59240 36032 ft 455 kts 185°
2026-05-04 20:23 33.67478 -86.58998 36038 ft 455 kts 185°
2026-05-04 20:24 33.61135 -86.58761 36016 ft 456 kts 186°
2026-05-04 20:24 33.54786 -86.58526 36028 ft 457 kts 186°
2026-05-04 20:25 33.48459 -86.58299 36032 ft 458 kts 186°
2026-05-04 20:25 33.42084 -86.58068 36036 ft 458 kts 186°
2026-05-04 20:26 33.35702 -86.57823 36035 ft 459 kts 186°
2026-05-04 20:26 33.29319 -86.57578 36044 ft 459 kts 186°
2026-05-04 20:27 33.22928 -86.57344 36044 ft 459 kts 186°
2026-05-04 20:27 33.16539 -86.57107 36042 ft 460 kts 186°
2026-05-04 20:28 33.10137 -86.56876 35999 ft 460 kts 186°
2026-05-04 20:28 33.06949 -86.56518 36046 ft 471 kts 177°
2026-05-04 20:28 33.03686 -86.55630 36062 ft 476 kts 173°
2026-05-04 20:29 32.97320 -86.53738 36069 ft 474 kts 173°
2026-05-04 20:29 32.90931 -86.51861 36065 ft 472 kts 173°
2026-05-04 20:30 32.84545 -86.50004 36061 ft 472 kts 173°
2026-05-04 20:30 32.78163 -86.48155 36011 ft 473 kts 174°
2026-05-04 20:31 32.71754 -86.46304 36018 ft 474 kts 174°
2026-05-04 20:31 32.65335 -86.44439 36017 ft 475 kts 174°
2026-05-04 20:32 32.58903 -86.42561 36014 ft 476 kts 174°
2026-05-04 20:32 32.52453 -86.40691 36026 ft 479 kts 175°
2026-05-04 20:33 32.45970 -86.38820 36025 ft 480 kts 174°
2026-05-04 20:33 32.39518 -86.36957 36023 ft 480 kts 174°
2026-05-04 20:34 32.33021 -86.35091 36050 ft 480 kts 175°
2026-05-04 20:34 32.26510 -86.33180 36035 ft 486 kts 171°
2026-05-04 20:35 32.23322 -86.31734 36038 ft 497 kts 161°
2026-05-04 20:35 32.20293 -86.29691 36043 ft 505 kts 151°
2026-05-04 20:35 32.14877 -86.24362 36039 ft 511 kts 143°
2026-05-04 20:36 32.09560 -86.18868 36046 ft 511 kts 143°
2026-05-04 20:36 32.04203 -86.13372 36077 ft 510 kts 144°
2026-05-04 20:37 31.98851 -86.07888 36046 ft 509 kts 144°
2026-05-04 20:37 31.93506 -86.02394 36057 ft 510 kts 143°
2026-05-04 20:38 31.88160 -85.96904 36062 ft 510 kts 144°
2026-05-04 20:38 31.82797 -85.91425 36064 ft 510 kts 144°
2026-05-04 20:39 31.77455 -85.85923 36059 ft 512 kts 140°
2026-05-04 20:39 31.72624 -85.79726 36012 ft 515 kts 135°
2026-05-04 20:40 31.67842 -85.73495 36058 ft 517 kts 135°
2026-05-04 20:40 31.63017 -85.67229 36058 ft 517 kts 135°
2026-05-04 20:41 31.58179 -85.60965 36066 ft 517 kts 135°
2026-05-04 20:41 31.53346 -85.54716 36073 ft 517 kts 135°
2026-05-04 20:42 31.48517 -85.48464 36078 ft 517 kts 136°
2026-05-04 20:42 31.43684 -85.42231 36046 ft 517 kts 136°
2026-05-04 20:43 31.38846 -85.36019 36078 ft 515 kts 136°
2026-05-04 20:43 31.34017 -85.29810 36086 ft 516 kts 136°
2026-05-04 20:44 31.29190 -85.23609 36091 ft 515 kts 136°
2026-05-04 20:44 31.24361 -85.17418 36090 ft 514 kts 136°
2026-05-04 20:45 31.19565 -85.11292 36083 ft 514 kts 136°
2026-05-04 20:45 31.14742 -85.05140 36027 ft 514 kts 136°
2026-05-04 20:46 31.09937 -84.99003 36070 ft 511 kts 136°
2026-05-04 20:46 31.05132 -84.92884 36068 ft 510 kts 136°
2026-05-04 20:47 31.00327 -84.86791 36070 ft 510 kts 136°
2026-05-04 20:47 30.96346 -84.81730 36070 ft 509 kts 136°
2026-05-04 20:48 30.91556 -84.75642 36074 ft 509 kts 136°
2026-05-04 20:48 30.86752 -84.69566 36071 ft 509 kts 136°
2026-05-04 20:49 30.81955 -84.63510 36055 ft 508 kts 136°
2026-05-04 20:49 30.77177 -84.57480 36077 ft 507 kts 137°
2026-05-04 20:50 30.72399 -84.51473 36077 ft 506 kts 137°
2026-05-04 20:50 30.67629 -84.45479 36075 ft 505 kts 137°
2026-05-04 20:51 30.62856 -84.39496 36072 ft 504 kts 137°
2026-05-04 20:51 30.58123 -84.33562 36063 ft 504 kts 137°
2026-05-04 20:52 30.53361 -84.27599 36066 ft 504 kts 137°
2026-05-04 20:52 30.48588 -84.21641 36071 ft 503 kts 137°
2026-05-04 20:53 30.43836 -84.15707 36072 ft 502 kts 137°
2026-05-04 20:53 30.39068 -84.09816 36065 ft 499 kts 141°
2026-05-04 20:54 30.33581 -84.05106 36060 ft 485 kts 158°
2026-05-04 20:54 30.27725 -84.01241 36053 ft 485 kts 157°
2026-05-04 20:55 30.21858 -83.97352 36054 ft 486 kts 156°
2026-05-04 20:55 30.15995 -83.93463 36064 ft 486 kts 156°
2026-05-04 20:56 30.10169 -83.89597 36070 ft 484 kts 157°
2026-05-04 20:56 30.04337 -83.85741 36075 ft 483 kts 157°
2026-05-04 20:57 29.98513 -83.81905 36071 ft 481 kts 157°
2026-05-04 20:57 29.92705 -83.78085 36041 ft 480 kts 156°
2026-05-04 20:58 29.86898 -83.74268 36056 ft 479 kts 156°
2026-05-04 20:58 29.81117 -83.70467 36061 ft 478 kts 156°
2026-05-04 20:59 29.75482 -83.66761 36060 ft 478 kts 156°
2026-05-04 20:59 29.69701 -83.62976 36059 ft 477 kts 157°
2026-05-04 21:00 29.63930 -83.59210 36023 ft 477 kts 156°
2026-05-04 21:00 29.58193 -83.55463 36061 ft 476 kts 156°
2026-05-04 21:01 29.52445 -83.51709 36069 ft 475 kts 156°
2026-05-04 21:01 29.46693 -83.47956 36070 ft 474 kts 156°
2026-05-04 21:02 29.40953 -83.44212 36061 ft 473 kts 156°
2026-05-04 21:02 29.35232 -83.40491 36039 ft 473 kts 156°
2026-05-04 21:03 29.29508 -83.36779 36048 ft 472 kts 156°
2026-05-04 21:03 29.23789 -83.33073 36053 ft 472 kts 156°
2026-05-04 21:04 29.18090 -83.29337 36050 ft 472 kts 156°
2026-05-04 21:04 29.12439 -83.25602 36047 ft 472 kts 156°
2026-05-04 21:05 29.06747 -83.21857 36012 ft 471 kts 156°
2026-05-04 21:05 29.01064 -83.18139 36027 ft 470 kts 156°
2026-05-04 21:06 28.95384 -83.14425 36036 ft 470 kts 156°
2026-05-04 21:06 28.89719 -83.10725 36048 ft 469 kts 156°
2026-05-04 21:07 28.84058 -83.07026 36050 ft 468 kts 156°
2026-05-04 21:07 28.78404 -83.03341 36050 ft 468 kts 156°
2026-05-04 21:08 28.72752 -82.99660 36034 ft 467 kts 156°
2026-05-04 21:08 28.67112 -82.95995 36038 ft 467 kts 156°
2026-05-04 21:09 28.61465 -82.92335 36041 ft 467 kts 156°
2026-05-04 21:09 28.55820 -82.88679 36046 ft 467 kts 156°
2026-05-04 21:10 28.50175 -82.85019 36049 ft 467 kts 156°
2026-05-04 21:10 28.44565 -82.81383 36022 ft 466 kts 156°
2026-05-04 21:11 28.38926 -82.77736 36035 ft 466 kts 157°
2026-05-04 21:11 28.33302 -82.74106 36050 ft 464 kts 157°
2026-05-04 21:12 28.27686 -82.70494 36065 ft 463 kts 157°
2026-05-04 21:12 28.22075 -82.66887 36059 ft 463 kts 157°
2026-05-04 21:13 28.16480 -82.63291 36024 ft 462 kts 158°
2026-05-04 21:13 28.10882 -82.59697 36017 ft 462 kts 158°
2026-05-04 21:14 28.05290 -82.56110 36020 ft 462 kts 158°
2026-05-04 21:14 27.99682 -82.52674 35455 ft 462 kts 165°
2026-05-04 21:15 27.96645 -82.51481 34533 ft 466 kts 170°
2026-05-04 21:15 27.93539 -82.50389 33837 ft 468 kts 170°
2026-05-04 21:15 27.90429 -82.49292 33204 ft 467 kts 170°
2026-05-04 21:15 27.87337 -82.48198 32628 ft 464 kts 170°
2026-05-04 21:16 27.84270 -82.47111 32048 ft 461 kts 170°
2026-05-04 21:16 27.81219 -82.46028 31514 ft 458 kts 170°
2026-05-04 21:16 27.78183 -82.44950 31120 ft 456 kts 170°
2026-05-04 21:16 27.75155 -82.43877 30981 ft 456 kts 171°
2026-05-04 21:17 27.69070 -82.41732 31021 ft 458 kts 171°
2026-05-04 21:17 27.62983 -82.39584 31022 ft 458 kts 170°
2026-05-04 21:18 27.56904 -82.37431 31032 ft 458 kts 170°
2026-05-04 21:18 27.50826 -82.35284 31001 ft 456 kts 170°
2026-05-04 21:19 27.47804 -82.34218 30555 ft 453 kts 171°
2026-05-04 21:19 27.44802 -82.33163 30013 ft 451 kts 171°
2026-05-04 21:19 27.41807 -82.32107 29425 ft 449 kts 170°
2026-05-04 21:19 27.38843 -82.31037 28871 ft 448 kts 167°
2026-05-04 21:20 27.35993 -82.29572 28346 ft 453 kts 158°
2026-05-04 21:20 27.33294 -82.27854 27828 ft 450 kts 157°
2026-05-04 21:20 27.30545 -82.26101 27304 ft 446 kts 157°
2026-05-04 21:20 27.27885 -82.24407 26813 ft 443 kts 157°
2026-05-04 21:21 27.25214 -82.22709 26300 ft 439 kts 157°
2026-05-04 21:21 27.22560 -82.21024 26033 ft 438 kts 157°
2026-05-04 21:21 27.19899 -82.19340 26004 ft 438 kts 157°
2026-05-04 21:21 27.17239 -82.17657 26014 ft 439 kts 157°
2026-05-04 21:22 27.14581 -82.15976 26015 ft 439 kts 157°
2026-05-04 21:22 27.11917 -82.14293 26020 ft 439 kts 157°
2026-05-04 21:22 27.09258 -82.12614 26019 ft 439 kts 157°
2026-05-04 21:22 27.06590 -82.10931 26018 ft 439 kts 157°
2026-05-04 21:23 27.03929 -82.09250 26019 ft 439 kts 157°
2026-05-04 21:23 27.01265 -82.07568 26018 ft 439 kts 157°
2026-05-04 21:23 26.98603 -82.05877 26017 ft 440 kts 155°
2026-05-04 21:23 26.96102 -82.03939 26017 ft 447 kts 147°
2026-05-04 21:24 26.93800 -82.01565 25997 ft 452 kts 138°
2026-05-04 21:24 26.91613 -81.98966 26018 ft 453 kts 138°
2026-05-04 21:24 26.89443 -81.96395 26017 ft 454 kts 138°
2026-05-04 21:24 26.87276 -81.93832 26017 ft 453 kts 138°
2026-05-04 21:25 26.85110 -81.91271 25820 ft 450 kts 138°
2026-05-04 21:25 26.82970 -81.88741 25246 ft 446 kts 138°
2026-05-04 21:25 26.80868 -81.86260 24680 ft 443 kts 138°
2026-05-04 21:25 26.78756 -81.83772 24139 ft 439 kts 138°
2026-05-04 21:26 26.76661 -81.81304 23596 ft 435 kts 138°
2026-05-04 21:26 26.74574 -81.78859 23127 ft 432 kts 138°
2026-05-04 21:26 26.72494 -81.76436 22964 ft 431 kts 138°
2026-05-04 21:26 26.70412 -81.74022 22902 ft 430 kts 139°
2026-05-04 21:27 26.68339 -81.71623 22327 ft 426 kts 139°
2026-05-04 21:27 26.66293 -81.69253 21736 ft 421 kts 139°
2026-05-04 21:27 26.64270 -81.66902 21141 ft 417 kts 138°
2026-05-04 21:27 26.62377 -81.64466 20531 ft 415 kts 131°
2026-05-04 21:28 26.60658 -81.61899 19937 ft 411 kts 131°
2026-05-04 21:28 26.58949 -81.59355 19336 ft 407 kts 131°
2026-05-04 21:28 26.57253 -81.56838 18754 ft 403 kts 131°
2026-05-04 21:28 26.55574 -81.54352 18177 ft 398 kts 131°
2026-05-04 21:29 26.53918 -81.51894 17535 ft 394 kts 131°
2026-05-04 21:29 26.52284 -81.49466 16921 ft 389 kts 131°
2026-05-04 21:29 26.50666 -81.47062 16314 ft 385 kts 131°
2026-05-04 21:29 26.49070 -81.44689 15720 ft 380 kts 131°
2026-05-04 21:30 26.47489 -81.42340 15139 ft 376 kts 131°
2026-05-04 21:30 26.45929 -81.40026 14577 ft 371 kts 131°
2026-05-04 21:30 26.44379 -81.37740 14024 ft 367 kts 131°
2026-05-04 21:30 26.42849 -81.35485 13431 ft 363 kts 130°
2026-05-04 21:31 26.39827 -81.31103 12268 ft 353 kts 133°
2026-05-04 21:31 26.38278 -81.29010 11701 ft 348 kts 134°
2026-05-04 21:31 26.36723 -81.26965 11246 ft 345 kts 134°
2026-05-04 21:32 26.35168 -81.24931 10824 ft 341 kts 134°
2026-05-04 21:32 26.33635 -81.22916 10405 ft 338 kts 134°
2026-05-04 21:32 26.32144 -81.20943 10076 ft 335 kts 134°
2026-05-04 21:32 26.30653 -81.18954 10003 ft 323 kts 134°
2026-05-04 21:33 26.29270 -81.17099 10007 ft 310 kts 134°
2026-05-04 21:33 26.28343 -81.15860 10015 ft 307 kts 134°
2026-05-04 21:33 26.26971 -81.14042 10019 ft 306 kts 134°
2026-05-04 21:33 26.25592 -81.12229 10019 ft 306 kts 134°
2026-05-04 21:34 26.24213 -81.10425 10020 ft 306 kts 134°
2026-05-04 21:34 26.22834 -81.08622 10021 ft 306 kts 134°
2026-05-04 21:34 26.21012 -81.06231 10019 ft 305 kts 134°
2026-05-04 21:34 26.20089 -81.05015 10018 ft 300 kts 134°
2026-05-04 21:35 26.18778 -81.03286 10021 ft 287 kts 134°
2026-05-04 21:35 26.17494 -81.01598 10020 ft 283 kts 134°
2026-05-04 21:35 26.16219 -80.99927 10016 ft 283 kts 134°
2026-05-04 21:35 26.15121 -80.98131 10021 ft 287 kts 121°
2026-05-04 21:36 26.14404 -80.96050 10021 ft 291 kts 106°
2026-05-04 21:36 26.14031 -80.93855 10017 ft 282 kts 102°
2026-05-04 21:36 26.13689 -80.91748 10019 ft 272 kts 103°
2026-05-04 21:36 26.13348 -80.89689 9849 ft 269 kts 103°
2026-05-04 21:37 26.13008 -80.87650 9559 ft 268 kts 103°
2026-05-04 21:37 26.12670 -80.85627 9233 ft 265 kts 103°
2026-05-04 21:37 26.12334 -80.83616 8903 ft 262 kts 102°
2026-05-04 21:37 26.12004 -80.81632 8574 ft 260 kts 102°
2026-05-04 21:38 26.11675 -80.79665 8249 ft 257 kts 102°
2026-05-04 21:38 26.11347 -80.77714 7985 ft 255 kts 102°
2026-05-04 21:38 26.11020 -80.75781 7710 ft 254 kts 102°
2026-05-04 21:38 26.10695 -80.73859 7383 ft 252 kts 102°
2026-05-04 21:39 26.10374 -80.71944 7055 ft 250 kts 102°
2026-05-04 21:39 26.10058 -80.70050 6727 ft 248 kts 101°
2026-05-04 21:39 26.09744 -80.68175 6454 ft 246 kts 102°
2026-05-04 21:39 26.09431 -80.66315 6138 ft 243 kts 101°
2026-05-04 21:40 26.09126 -80.64494 5785 ft 242 kts 101°
2026-05-04 21:40 26.08818 -80.62671 5482 ft 237 kts 101°
2026-05-04 21:40 26.08515 -80.60879 5167 ft 234 kts 101°
2026-05-04 21:40 26.08222 -80.59145 5051 ft 219 kts 101°
2026-05-04 21:41 26.07947 -80.57535 4935 ft 206 kts 101°
2026-05-04 21:41 26.07682 -80.55976 4551 ft 204 kts 100°
2026-05-04 21:41 26.07422 -80.54440 4216 ft 201 kts 99°
2026-05-04 21:41 26.07158 -80.52926 3986 ft 199 kts 100°
2026-05-04 21:42 26.06877 -80.51412 3822 ft 200 kts 95°
2026-05-04 21:42 26.06771 -80.49891 3693 ft 194 kts 91°
2026-05-04 21:42 26.06743 -80.48429 3449 ft 189 kts 88°
2026-05-04 21:42 26.06733 -80.47028 3306 ft 174 kts 88°
2026-05-04 21:43 26.06726 -80.45743 3178 ft 160 kts 87°
2026-05-04 21:43 26.06722 -80.44529 2967 ft 155 kts 87°
2026-05-04 21:43 26.06718 -80.43333 2740 ft 156 kts 87°
2026-05-04 21:43 26.06713 -80.42128 2605 ft 156 kts 86°
2026-05-04 21:44 26.06705 -80.40916 2476 ft 157 kts 88°
2026-05-04 21:44 26.06703 -80.39735 2235 ft 150 kts 87°
2026-05-04 21:44 26.06699 -80.38590 1837 ft 147 kts 87°
2026-05-04 21:44 26.06694 -80.37526 1816 ft 134 kts 85°
2026-05-04 21:45 26.06690 -80.36486 1814 ft 134 kts 85°
2026-05-04 21:45 26.06686 -80.35461 1815 ft 133 kts 86°
2026-05-04 21:45 26.06682 -80.34467 1812 ft 136 kts 86°
2026-05-04 21:45 26.06677 -80.33400 1813 ft 139 kts 86°
2026-05-04 21:46 26.06672 -80.32333 1821 ft 137 kts 86°
2026-05-04 21:46 26.06668 -80.31270 1810 ft 139 kts 87°
2026-05-04 21:46 26.06663 -80.30202 1816 ft 136 kts 85°
2026-05-04 21:46 26.06658 -80.29143 1812 ft 140 kts 87°
2026-05-04 21:47 26.06653 -80.28072 1817 ft 139 kts 86°
2026-05-04 21:47 26.06648 -80.27012 1803 ft 141 kts 86°
2026-05-04 21:47 26.06642 -80.25922 1701 ft 140 kts 86°
2026-05-04 21:47 26.06638 -80.25078 1593 ft 140 kts 86°
2026-05-04 21:48 26.06644 -80.24015 1425 ft 140 kts 86°
2026-05-04 21:48 26.06633 -80.22945 1248 ft 140 kts 87°
2026-05-04 21:48 26.06624 -80.21890 1068 ft 137 kts 86°
2026-05-04 21:48 26.06618 -80.20799 894 ft 143 kts 86°
2026-05-04 21:49 26.06611 -80.19682 721 ft 144 kts 86°
2026-05-04 21:49 26.06603 -80.18579 541 ft 140 kts 87°
2026-05-04 21:49 26.06597 -80.17515 358 ft 139 kts 88°
2026-05-04 21:49 26.06592 -80.16465 184 ft 139 kts 89°
2026-05-04 21:50 26.06586 -80.15428 28 ft 133 kts 90°
2026-05-04 21:50 26.06583 -80.14469 19 ft 120 kts 92°
2026-05-04 21:50 26.06568 -80.13847 22 ft 35 kts 88°
2026-05-04 21:50 26.06576 -80.13638 26 ft 17 kts 85°
2026-05-04 21:51 26.06654 -80.13573 27 ft 17 kts 357°
2026-05-04 21:51 26.06721 -80.13584 27 ft 6 kts 323°
2026-05-04 21:51 26.06737 -80.13629 28 ft 7 kts 265°
2026-05-04 21:51 26.06741 -80.13701 27 ft 11 kts 270°
2026-05-04 21:52 26.06743 -80.13809 26 ft 17 kts 272°
2026-05-04 21:52 26.06743 -80.13877 25 ft 2 kts 269°
2026-05-04 21:52 26.06743 -80.13913 26 ft 7 kts 271°
2026-05-04 21:52 26.06736 -80.13995 24 ft 15 kts 256°
2026-05-04 21:53 26.06689 -80.14133 20 ft 23 kts 262°
2026-05-04 21:53 26.06691 -80.14343 18 ft 31 kts 270°
2026-05-04 21:53 26.06694 -80.14604 17 ft 28 kts 271°
2026-05-04 21:53 26.06696 -80.14694 18 ft 10 kts 272°
2026-05-04 21:54 26.06694 -80.14796 20 ft 16 kts 267°
2026-05-04 21:54 26.06695 -80.14881 21 ft 10 kts 273°
2026-05-04 21:54 26.06741 -80.14921 24 ft 0 kts
2026-05-04 21:54 26.06750 -80.14918 22 ft 5 kts 19°
2026-05-04 21:55 26.06767 -80.14856 22 ft 12 kts 90°
2026-05-04 21:55 26.06766 -80.14760 19 ft 14 kts 90°
2026-05-04 21:55 26.06766 -80.14742 19 ft 0 kts 90°
2026-05-04 21:56 26.06767 -80.14704 18 ft 11 kts 94°
2026-05-04 21:56 26.06792 -80.14584 16 ft 21 kts 27°
2026-05-04 21:56 26.06885 -80.14662 19 ft 14 kts 317°
2026-05-04 21:56 26.06933 -80.14712 19 ft 0 kts 318°
2026-05-04 21:57 26.06936 -80.14715 19 ft 0 kts 319°
2026-05-04 21:57 26.06938 -80.14717 19 ft 2 kts 322°
2026-05-04 21:57 26.06958 -80.14730 19 ft 5 kts 331°
2026-05-04 21:57 26.06967 -80.14735 19 ft 2 kts 333°
2026-05-04 21:58 26.06987 -80.14751 19 ft 5 kts 316°
2026-05-04 21:58 26.07022 -80.14765 19 ft 6 kts 27°
2026-05-04 21:58 26.07054 -80.14716 22 ft 5 kts 57°
2026-05-04 21:58 26.07060 -80.14705 21 ft 0 kts 56°